SCP
-0 -0 -0 0 -0 0 0 0 0 0 0 0 -0 0 0 0 0 0 0 0 0 1 1 1 1 1 1 0 0 0 0 0 0 0 0 0 0 0 0 0 0 0 0 0
-0 -0 0 0 0 -0 0 0 0 0 0 0 0 0 0 0 0 0 0 0 0 0 1 1 1 1 1 1 0 0 0 0 0 0 0 0 0 0 0 0 0 0 0 0
-0 0 0 0 -0 -0 0 0 0 0 0 0 0 0 0 0 0 0 0 0 0 0 1 3 3 2 1 1 0 0 0 0 0 0 0 0 0 0 0 0 0 0 0 0
-0 0 -0 0 0 0 0 0 0 0 0 0 0 0 0 0 0 0 0 0 0 1 2 2 2 1 1 0 0 0 0 0 0 0 0 0 0 0 0 1 1 0 0 0
-0 0 0 0 0 0 0 0 1 0 0 0 0 0 0 0 0 0 0 0 0 1 1 1 1 1 1 0 0 0 0 0 0 0 0 0 0 0 1 1 1 1 0 0
0 0 0 -0 0 -0 -0 0 0 0 0 0 0 0 0 0 0 0 0 0 0 0 1 1 1 1 0 0 0 0 0 0 0 0 0 0 0 1 1 1 1 1 0 0
0 0 0 0 0 0 1 0 0 0 0 0 1 0 0 0 0 0 0 0 0 1 1 1 1 0 0 0 0 0 0 0 0 0 1 1 1 1 1 1 1 1 0 1
0 0 -0 0 0 1 0 0 0 0 1 0 1 0 0 1 1 0 0 0 0 1 1 1 1 0 0 0 0 0 0 0 0 0 1 0 1 1 1 1 1 1 0 0
0 1 1 0 0 0 0 0 1 1 1 0 0 0 0 1 1 1 0 0 0 1 1 1 0 0 0 0 0 0 1 1 1 1 1 1 1 1 1 0 0 0 0 0
1 0 0 -0 -0 -0 0 1 1 0 0 0 0 0 0 0 1 2 1 0 0 0 1 1 0 1 0 0 1 1 1 1 1 1 1 1 0 1 0 0 1 0 1 1
0 0 0 0 0 -0 0 0 0 0 0 0 0 0 0 1 1 1 1 1 1 1 1 1 1 1 0 1 1 1 1 1 1 1 1 1 1 0 0 0 0 0 0 0
1 1 2 -0 0 -0 1 0 0 1 0 0 0 0 0 1 2 2 2 3 3 2 2 1 1 0 0 0 0 0 0 0 0 0 0 0 0 0 0 0 0 0 0 0
0 2 1 1 1 0 0 0 0 0 0 0 1 1 1 2 1 2 2 2 2 1 1 0 0 0 0 0 0 0 0 0 0 0 0 0 0 0 0 0 0 0 0 0
0 -0 0 0 0 0 0 0 0 0 1 1 1 1 2 2 1 2 1 1 1 0 0 0 0 0 0 0 0 0 0 0 0 0 0 0 0 0 0 0 0 0 0 0
0 -0 1 0 0 0 0 0 1 1 1 1 1 1 1 1 1 1 0 0 0 0 0 0 0 0 0 0 0 0 0 0 0 0 0 0 0 0 0 0 0 0 0 0
0 0 0 0 0 0 0 0 1 1 1 1 1 1 1 1 0 0 0 0 0 0 0 0 0 0 0 0 0 0 0 0 0 0 0 0 0 0 0 0 0 0 0 0
0 0 0 0 0 0 0 1 1 1 1 1 0 0 0 0 0 0 0 0 0 0 0 0 0 0 0 0 0 0 0 0 0 0 0 0 0 0 0 0 0 0 0 0
0 0 0 0 0 0 0 0 1 1 0 0 0 0 0 0 0 0 0 0 0 0 0 0 0 0 0 0 0 0 0 0 0 0 0 0 0 0 0 0 0 0 0 0
0 0 0 0 -0 -0 0 0 0 0 0 0 0 0 0 0 0 0 0 0 0 0 0 0 0 0 0 0 0 0 0 0 0 0 0 0 0 0 0 0 0 0 0 0
0 0 0 0 0 0 0 0 0 0 0 0 0 0 0 0 0 0 0 0 0 0 0 0 0 0 0 0 0 0 0 0 0 0 0 0 0 0 0 0 0 0 0 0
0 0 0 0 0 0 0 0 0 0 0 0 0 0 0 0 0 0 0 0 0 0 0 0 0 0 0 0 0 0 0 0 0 0 0 0 0 0 0 0 0 0 0 0
0 0 0 0 0 0 0 0 0 0 0 0 0 0 0 0 0 0 0 0 0 0 0 0 0 0 0 0 0 0 0 0 0 0 0 0 0 0 0 0 0 0 0 0
0 0 0 0 0 0 0 0 0 0 0 0 0 0 0 0 0 0 0 0 0 0 0 0 0 0 0 0 0 0 0 0 0 0 0 0 0 0 0 0 0 0 0 0
0 0 0 0 0 0 0 0 0 0 0 0 0 0 0 0 0 0 0 0 0 0 0 0 0 0 0 0 0 0 0 0 0 0 0 0 0 0 0 0 0 0 0 0
0 0 1 1 0 0 0 0 0 0 0 0 0 0 0 0 0 0 0 0 0 0 0 0 0 0 0 0 0 0 0 0 0 0 0 0 0 0 0 0 0 0 0 0
0 0 0 0 0 0 0 0 0 0 0 0 0 0 0 0 0 0 0 0 0 0 0 0 0 0 0 0 0 0 0 0 0 0 0 0 0 0 0 0 0 0 0 0
0 0 0 0 0 0 0 0 0 0 0 0 0 0 0 0 0 0 0 0 0 0 0 0 0 0 0 0 0 0 0 0 0 0 0 0 0 0 0 0 0 0 0 0
Wind_Speed_500mb
33 37 43 21 37 35 32 33 28 26 31 31 23 24 34 52 34 16 11 10 12 16 16 29 33 29 24 21 17 18 18 18 19 22 26 26 28 29 32 28 28 26 33 35
30 34 21 21 39 42 15 21 26 28 26 27 20 10 16 74 11 43 57 41 6 11 19 22 25 23 22 21 19 18 18 19 18 20 22 26 29 33 31 29 31 36 39 38
28 11 22 18 29 19 18 21 20 21 27 33 28 42 42 42 39 36 36 34 37 13 11 21 14 21 18 17 16 20 18 18 20 22 24 28 30 31 34 35 39 42 42 43
22 29 29 9 14 20 18 22 26 19 24 27 38 36 35 36 29 30 28 28 27 17 17 10 13 8 13 14 16 16 18 17 21 23 26 28 32 38 38 42 45 49 50 53
19 18 15 36 13 7 5 6 22 21 22 25 23 19 24 25 21 18 21 20 15 16 10 9 8 12 11 10 11 14 18 20 21 24 27 29 35 41 48 50 51 54 57 60
22 28 32 45 36 72 95 7 10 11 16 21 22 9 15 16 13 14 14 15 15 13 9 11 12 11 7 7 11 15 18 20 22 25 31 38 41 45 47 51 58 61 68 70
15 21 18 21 18 22 7 12 10 8 14 16 16 19 17 11 10 12 12 13 12 11 11 13 11 6 1 7 11 16 19 21 23 27 35 43 44 52 58 65 72 75 72 66
9 13 18 15 9 16 26 31 4 10 16 11 17 12 7 11 6 3 4 7 8 10 8 10 8 6 1 6 13 16 20 24 30 34 40 45 54 61 62 69 75 79 71 67
13 9 33 25 53 29 21 9 6 13 12 12 12 15 2 9 11 7 5 1 2 4 3 3 4 3 2 9 14 19 27 30 35 40 43 50 57 63 68 68 66 69 73 73
28 17 36 42 35 38 23 11 14 11 13 19 20 18 22 27 11 9 7 4 4 4 1 3 2 8 26 24 18 28 40 32 37 46 47 52 53 54 56 55 58 60 68 64
18 24 31 59 59 80 28 15 20 16 18 24 25 28 29 32 19 5 2 2 2 6 6 7 6 27 15 20 25 31 31 35 35 38 45 50 48 51 54 53 57 57 61 66
9 16 15 24 11 52 27 23 24 24 22 18 18 16 17 19 17 17 16 11 12 7 6 15 19 9 20 22 23 25 29 35 38 40 43 48 47 52 52 51 57 51 58 56
49 5 15 15 21 20 23 20 21 22 21 19 23 18 16 19 24 22 17 17 18 14 13 15 21 19 21 28 34 31 39 36 39 44 43 41 49 52 54 55 54 52 61 60
23 59 5 16 13 12 17 20 24 27 25 25 23 26 31 30 27 29 31 24 13 18 19 18 18 25 31 35 39 32 33 31 41 42 41 44 44 48 49 52 55 56 53 53
59 43 11 22 14 9 16 15 20 27 27 28 26 25 29 36 33 25 21 22 23 19 18 17 20 27 34 40 41 34 35 33 44 39 40 39 43 42 44 46 48 48 45 43
21 2 15 17 21 13 15 16 19 21 24 32 35 29 30 32 30 28 24 17 11 14 14 18 24 25 33 36 36 26 33 35 38 36 36 39 40 42 43 45 46 47 43 65
21 14 21 31 20 7 17 20 17 24 27 33 33 31 31 30 26 21 17 14 14 17 22 27 31 27 27 36 29 30 32 30 32 32 33 36 37 41 41 37 41 41 45 56
27 11 7 4 3 3 11 25 27 29 31 34 33 29 26 22 21 17 15 16 16 20 27 28 28 29 25 32 22 26 27 28 29 29 32 31 34 37 36 37 40 39 43 45
27 4 10 39 38 38 30 31 33 34 35 33 30 27 24 21 18 16 13 9 9 12 24 26 21 25 26 26 25 25 25 24 25 26 27 28 33 35 34 38 39 41 44 49
8 9 8 22 5 34 38 35 36 36 33 32 29 25 22 18 13 14 15 15 25 26 25 25 25 31 32 23 17 24 20 21 22 22 25 27 23 26 30 33 38 38 42 45
5 7 8 5 30 31 32 34 35 35 31 27 26 23 19 15 11 7 6 5 23 25 20 21 24 38 34 20 9 19 17 20 20 20 24 26 33 33 31 30 33 38 38 47
4 9 15 16 19 25 26 28 28 30 29 26 24 20 16 11 7 3 10 10 18 21 16 9 27 38 26 13 17 15 17 18 19 20 27 24 32 37 39 39 45 43 46 44
4 8 13 20 24 25 25 25 25 26 26 24 23 17 13 11 10 5 10 12 14 22 19 15 28 32 19 7 17 14 16 18 16 17 27 22 27 32 33 37 40 41 41 40
5 9 16 20 25 27 29 27 26 26 25 24 24 23 15 9 7 8 11 14 17 22 21 24 35 35 14 13 14 14 16 16 16 17 25 27 25 26 31 39 39 42 41 39
9 12 19 25 29 30 30 29 28 27 28 25 24 21 20 22 16 18 14 19 22 20 19 21 30 31 19 15 15 12 13 15 14 19 24 26 23 25 30 33 37 42 43 45
12 16 20 26 28 31 28 29 30 27 26 26 21 20 17 21 23 25 21 16 19 19 15 18 24 25 20 17 18 15 16 23 19 19 20 22 22 26 32 30 34 35 34 39
16 21 23 24 28 28 28 32 31 33 33 29 28 29 25 25 21 25 22 22 17 17 18 19 19 24 18 18 15 17 10 17 23 16 15 20 24 28 30 31 31 33 40 38
Wind_Direction_500mb
281 281 288 195 258 234 234 234 257 335 341 120 150 182 222 240 300 213 132 149 177 196 208 190 196 194 210 223 233 241 252 255 262 272 286 287 292 290 293 289 296 292 293 300
288 287 351 332 320 299 351 357 335 342 333 27 172 26 40 75 31 358 16 12 15 217 202 183 193 186 213 220 238 257 255 263 270 277 277 280 284 293 302 306 302 297 293 288
291 340 295 261 244 274 15 354 341 335 2 32 33 61 57 64 45 34 25 5 1 16 163 174 178 196 202 231 239 250 264 276 282 284 286 285 288 290 293 295 296 296 298 297
283 288 283 294 91 82 46 335 354 349 354 8 90 82 59 28 30 25 23 16 9 49 96 128 152 188 207 226 251 257 274 281 285 284 284 285 284 286 291 294 299 302 304 303
274 271 281 292 43 268 174 344 46 30 1 352 13 91 55 61 49 37 43 41 37 55 94 159 154 183 202 228 261 273 281 284 287 286 289 288 287 293 293 294 301 304 305 305
270 291 302 0 45 36 336 206 26 333 11 12 345 33 78 79 82 77 72 80 95 114 126 141 149 178 198 259 280 279 285 290 287 285 282 286 288 296 306 302 302 305 305 305
260 271 257 36 118 123 52 328 186 43 27 28 55 76 119 108 91 106 107 105 118 126 140 150 156 149 265 307 309 301 292 290 288 286 287 292 307 314 307 309 309 307 305 309
111 246 254 7 329 115 236 268 49 60 74 19 104 125 153 120 119 104 104 103 127 143 156 148 141 132 92 327 314 307 305 307 300 297 297 297 299 304 303 303 304 304 303 295
315 269 204 231 230 226 240 264 34 72 47 43 26 10 179 186 170 191 192 355 266 175 163 133 126 147 320 323 309 312 299 304 313 311 304 300 299 302 306 311 310 315 316 322
332 113 182 198 216 224 171 146 108 94 70 54 39 17 359 360 187 184 198 159 269 319 258 324 11 62 335 313 300 296 311 318 312 310 316 311 316 320 319 323 326 328 326 326
232 287 314 49 55 341 85 134 121 102 74 47 34 19 11 9 19 102 118 182 135 354 10 35 73 326 358 314 314 332 330 334 332 328 326 333 333 332 333 329 328 331 331 328
341 10 29 149 222 197 119 95 84 72 61 60 59 51 36 46 34 41 73 91 111 84 29 7 9 19 349 340 331 332 331 333 336 331 330 331 339 339 337 345 345 351 351 350
357 63 81 87 104 102 113 113 114 104 91 86 69 71 76 68 72 85 88 68 57 41 358 339 343 2 1 349 349 352 342 354 346 336 346 357 345 345 348 347 352 350 355 358
313 295 145 130 148 135 120 112 99 94 92 85 86 91 100 106 97 84 80 83 75 64 53 48 25 5 355 351 352 352 357 357 348 353 355 350 354 354 352 352 354 355 357 358
207 238 284 162 163 149 123 113 104 102 104 97 95 93 94 98 97 97 97 88 90 82 60 36 18 358 353 352 359 13 15 358 360 359 357 352 354 358 357 358 359 359 3 1
312 236 204 204 200 158 131 129 117 116 112 112 105 110 109 112 112 110 114 114 94 60 37 14 2 360 352 359 3 32 10 353 357 2 0 360 2 1 3 5 4 7 3 10
289 255 229 220 154 119 127 122 139 134 127 115 117 118 114 110 105 97 91 78 59 40 18 5 2 2 3 2 19 37 12 357 3 3 3 5 1 4 4 9 8 9 359 357
276 297 121 48 147 227 164 139 141 141 133 128 127 123 118 113 104 101 84 55 27 5 4 358 3 11 7 3 14 36 1 3 4 7 5 9 13 7 7 9 7 360 357 356
256 235 320 155 150 163 148 152 150 144 139 137 132 128 125 119 121 114 104 87 39 351 350 355 15 356 359 7 38 31 5 4 7 9 10 10 15 10 9 6 3 1 360 353
149 111 103 134 151 139 148 151 148 146 146 145 138 131 126 126 118 81 50 17 2 359 359 360 7 351 353 7 39 28 354 4 3 7 6 2 360 5 6 1 359 354 350 347
116 195 204 239 166 147 154 155 153 150 147 146 145 144 140 123 109 93 56 317 327 351 357 356 338 345 346 358 17 11 356 357 357 356 356 358 359 6 7 356 351 347 348 343
172 193 142 126 142 151 160 160 158 153 154 155 153 151 143 128 102 89 356 333 330 355 12 343 312 334 345 23 33 18 349 346 350 350 353 357 1 4 1 343 340 350 353 356
233 155 155 166 168 170 172 173 168 167 166 166 168 161 143 165 179 207 273 307 326 348 356 324 336 345 357 21 14 335 338 338 342 348 348 353 356 349 341 336 355 357 2 4
201 181 175 172 172 179 184 184 182 180 181 180 185 195 194 193 249 239 258 295 326 336 344 332 344 348 6 25 3 327 334 332 339 357 340 335 341 350 337 350 8 3 2 358
211 193 183 184 188 194 194 192 191 193 193 192 208 206 212 217 202 218 238 275 310 330 347 322 330 333 355 339 311 313 321 329 337 348 335 341 340 346 348 1 350 350 351 351
216 209 207 205 205 203 202 206 207 209 207 208 218 220 224 233 232 246 269 271 291 311 338 312 316 308 318 315 299 288 279 312 331 316 328 330 335 332 341 345 349 348 344 336
231 223 218 213 220 219 216 219 221 224 218 220 230 225 225 235 242 248 244 252 280 278 283 290 305 297 296 305 290 270 297 320 319 314 331 325 326 331 330 334 332 325 322 329
Wind_Speed_850mb
33 37 43 21 37 35 32 33 28 26 31 31 23 24 34 52 34 16 11 10 12 16 16 29 33 29 24 21 17 18 18 18 19 22 26 26 28 29 32 28 28 26 33 35
30 34 21 21 39 42 15 21 26 28 26 27 20 10 16 74 11 43 57 41 6 11 19 22 25 23 22 21 19 18 18 19 18 20 22 26 29 33 31 29 31 36 39 38
28 11 22 18 29 19 18 21 20 21 27 33 28 42 42 42 39 36 36 34 37 13 11 21 14 21 18 17 16 20 18 18 20 22 24 28 30 31 34 35 39 42 42 43
22 29 29 9 14 20 18 22 26 19 24 27 38 36 35 36 29 30 28 28 27 17 17 10 13 8 13 14 16 16 18 17 21 23 26 28 32 38 38 42 45 49 50 53
19 18 15 36 13 7 5 6 22 21 22 25 23 19 24 25 21 18 21 20 15 16 10 9 8 12 11 10 11 14 18 20 21 24 27 29 35 41 48 50 51 54 57 60
22 28 32 45 36 72 95 7 10 11 16 21 22 9 15 16 13 14 14 15 15 13 9 11 12 11 7 7 11 15 18 20 22 25 31 38 41 45 47 51 58 61 68 70
15 21 18 21 18 22 7 12 10 8 14 16 16 19 17 11 10 12 12 13 12 11 11 13 11 6 1 7 11 16 19 21 23 27 35 43 44 52 58 65 72 75 72 66
9 13 18 15 9 16 26 31 4 10 16 11 17 12 7 11 6 3 4 7 8 10 8 10 8 6 1 6 13 16 20 24 30 34 40 45 54 61 62 69 75 79 71 67
13 9 33 25 53 29 21 9 6 13 12 12 12 15 2 9 11 7 5 1 2 4 3 3 4 3 2 9 14 19 27 30 35 40 43 50 57 63 68 68 66 69 73 73
28 17 36 42 35 38 23 11 14 11 13 19 20 18 22 27 11 9 7 4 4 4 1 3 2 8 26 24 18 28 40 32 37 46 47 52 53 54 56 55 58 60 68 64
18 24 31 59 59 80 28 15 20 16 18 24 25 28 29 32 19 5 2 2 2 6 6 7 6 27 15 20 25 31 31 35 35 38 45 50 48 51 54 53 57 57 61 66
9 16 15 24 11 52 27 23 24 24 22 18 18 16 17 19 17 17 16 11 12 7 6 15 19 9 20 22 23 25 29 35 38 40 43 48 47 52 52 51 57 51 58 56
49 5 15 15 21 20 23 20 21 22 21 19 23 18 16 19 24 22 17 17 18 14 13 15 21 19 21 28 34 31 39 36 39 44 43 41 49 52 54 55 54 52 61 60
23 59 5 16 13 12 17 20 24 27 25 25 23 26 31 30 27 29 31 24 13 18 19 18 18 25 31 35 39 32 33 31 41 42 41 44 44 48 49 52 55 56 53 53
59 43 11 22 14 9 16 15 20 27 27 28 26 25 29 36 33 25 21 22 23 19 18 17 20 27 34 40 41 34 35 33 44 39 40 39 43 42 44 46 48 48 45 43
21 2 15 17 21 13 15 16 19 21 24 32 35 29 30 32 30 28 24 17 11 14 14 18 24 25 33 36 36 26 33 35 38 36 36 39 40 42 43 45 46 47 43 65
21 14 21 31 20 7 17 20 17 24 27 33 33 31 31 30 26 21 17 14 14 17 22 27 31 27 27 36 29 30 32 30 32 32 33 36 37 41 41 37 41 41 45 56
27 11 7 4 3 3 11 25 27 29 31 34 33 29 26 22 21 17 15 16 16 20 27 28 28 29 25 32 22 26 27 28 29 29 32 31 34 37 36 37 40 39 43 45
27 4 10 39 38 38 30 31 33 34 35 33 30 27 24 21 18 16 13 9 9 12 24 26 21 25 26 26 25 25 25 24 25 26 27 28 33 35 34 38 39 41 44 49
8 9 8 22 5 34 38 35 36 36 33 32 29 25 22 18 13 14 15 15 25 26 25 25 25 31 32 23 17 24 20 21 22 22 25 27 23 26 30 33 38 38 42 45
5 7 8 5 30 31 32 34 35 35 31 27 26 23 19 15 11 7 6 5 23 25 20 21 24 38 34 20 9 19 17 20 20 20 24 26 33 33 31 30 33 38 38 47
4 9 15 16 19 25 26 28 28 30 29 26 24 20 16 11 7 3 10 10 18 21 16 9 27 38 26 13 17 15 17 18 19 20 27 24 32 37 39 39 45 43 46 44
4 8 13 20 24 25 25 25 25 26 26 24 23 17 13 11 10 5 10 12 14 22 19 15 28 32 19 7 17 14 16 18 16 17 27 22 27 32 33 37 40 41 41 40
5 9 16 20 25 27 29 27 26 26 25 24 24 23 15 9 7 8 11 14 17 22 21 24 35 35 14 13 14 14 16 16 16 17 25 27 25 26 31 39 39 42 41 39
9 12 19 25 29 30 30 29 28 27 28 25 24 21 20 22 16 18 14 19 22 20 19 21 30 31 19 15 15 12 13 15 14 19 24 26 23 25 30 33 37 42 43 45
12 16 20 26 28 31 28 29 30 27 26 26 21 20 17 21 23 25 21 16 19 19 15 18 24 25 20 17 18 15 16 23 19 19 20 22 22 26 32 30 34 35 34 39
16 21 23 24 28 28 28 32 31 33 33 29 28 29 25 25 21 25 22 22 17 17 18 19 19 24 18 18 15 17 10 17 23 16 15 20 24 28 30 31 31 33 40 38
Wind_Direction_850mb
281 281 288 195 258 234 234 234 257 335 341 120 150 182 222 240 300 213 132 149 177 196 208 190 196 194 210 223 233 241 252 255 262 272 286 287 292 290 293 289 296 292 293 300
288 287 351 332 320 299 351 357 335 342 333 27 172 26 40 75 31 358 16 12 15 217 202 183 193 186 213 220 238 257 255 263 270 277 277 280 284 293 302 306 302 297 293 288
291 340 295 261 244 274 15 354 341 335 2 32 33 61 57 64 45 34 25 5 1 16 163 174 178 196 202 231 239 250 264 276 282 284 286 285 288 290 293 295 296 296 298 297
283 288 283 294 91 82 46 335 354 349 354 8 90 82 59 28 30 25 23 16 9 49 96 128 152 188 207 226 251 257 274 281 285 284 284 285 284 286 291 294 299 302 304 303
274 271 281 292 43 268 174 344 46 30 1 352 13 91 55 61 49 37 43 41 37 55 94 159 154 183 202 228 261 273 281 284 287 286 289 288 287 293 293 294 301 304 305 305
270 291 302 0 45 36 336 206 26 333 11 12 345 33 78 79 82 77 72 80 95 114 126 141 149 178 198 259 280 279 285 290 287 285 282 286 288 296 306 302 302 305 305 305
260 271 257 36 118 123 52 328 186 43 27 28 55 76 119 108 91 106 107 105 118 126 140 150 156 149 265 307 309 301 292 290 288 286 287 292 307 314 307 309 309 307 305 309
111 246 254 7 329 115 236 268 49 60 74 19 104 125 153 120 119 104 104 103 127 143 156 148 141 132 92 327 314 307 305 307 300 297 297 297 299 304 303 303 304 304 303 295
315 269 204 231 230 226 240 264 34 72 47 43 26 10 179 186 170 191 192 355 266 175 163 133 126 147 320 323 309 312 299 304 313 311 304 300 299 302 306 311 310 315 316 322
332 113 182 198 216 224 171 146 108 94 70 54 39 17 359 360 187 184 198 159 269 319 258 324 11 62 335 313 300 296 311 318 312 310 316 311 316 320 319 323 326 328 326 326
232 287 314 49 55 341 85 134 121 102 74 47 34 19 11 9 19 102 118 182 135 354 10 35 73 326 358 314 314 332 330 334 332 328 326 333 333 332 333 329 328 331 331 328
341 10 29 149 222 197 119 95 84 72 61 60 59 51 36 46 34 41 73 91 111 84 29 7 9 19 349 340 331 332 331 333 336 331 330 331 339 339 337 345 345 351 351 350
357 63 81 87 104 102 113 113 114 104 91 86 69 71 76 68 72 85 88 68 57 41 358 339 343 2 1 349 349 352 342 354 346 336 346 357 345 345 348 347 352 350 355 358
313 295 145 130 148 135 120 112 99 94 92 85 86 91 100 106 97 84 80 83 75 64 53 48 25 5 355 351 352 352 357 357 348 353 355 350 354 354 352 352 354 355 357 358
207 238 284 162 163 149 123 113 104 102 104 97 95 93 94 98 97 97 97 88 90 82 60 36 18 358 353 352 359 13 15 358 360 359 357 352 354 358 357 358 359 359 3 1
312 236 204 204 200 158 131 129 117 116 112 112 105 110 109 112 112 110 114 114 94 60 37 14 2 360 352 359 3 32 10 353 357 2 0 360 2 1 3 5 4 7 3 10
289 255 229 220 154 119 127 122 139 134 127 115 117 118 114 110 105 97 91 78 59 40 18 5 2 2 3 2 19 37 12 357 3 3 3 5 1 4 4 9 8 9 359 357
276 297 121 48 147 227 164 139 141 141 133 128 127 123 118 113 104 101 84 55 27 5 4 358 3 11 7 3 14 36 1 3 4 7 5 9 13 7 7 9 7 360 357 356
256 235 320 155 150 163 148 152 150 144 139 137 132 128 125 119 121 114 104 87 39 351 350 355 15 356 359 7 38 31 5 4 7 9 10 10 15 10 9 6 3 1 360 353
149 111 103 134 151 139 148 151 148 146 146 145 138 131 126 126 118 81 50 17 2 359 359 360 7 351 353 7 39 28 354 4 3 7 6 2 360 5 6 1 359 354 350 347
116 195 204 239 166 147 154 155 153 150 147 146 145 144 140 123 109 93 56 317 327 351 357 356 338 345 346 358 17 11 356 357 357 356 356 358 359 6 7 356 351 347 348 343
172 193 142 126 142 151 160 160 158 153 154 155 153 151 143 128 102 89 356 333 330 355 12 343 312 334 345 23 33 18 349 346 350 350 353 357 1 4 1 343 340 350 353 356
233 155 155 166 168 170 172 173 168 167 166 166 168 161 143 165 179 207 273 307 326 348 356 324 336 345 357 21 14 335 338 338 342 348 348 353 356 349 341 336 355 357 2 4
201 181 175 172 172 179 184 184 182 180 181 180 185 195 194 193 249 239 258 295 326 336 344 332 344 348 6 25 3 327 334 332 339 357 340 335 341 350 337 350 8 3 2 358
211 193 183 184 188 194 194 192 191 193 193 192 208 206 212 217 202 218 238 275 310 330 347 322 330 333 355 339 311 313 321 329 337 348 335 341 340 346 348 1 350 350 351 351
216 209 207 205 205 203 202 206 207 209 207 208 218 220 224 233 232 246 269 271 291 311 338 312 316 308 318 315 299 288 279 312 331 316 328 330 335 332 341 345 349 348 344 336
231 223 218 213 220 219 216 219 221 224 218 220 230 225 225 235 242 248 244 252 280 278 283 290 305 297 296 305 290 270 297 320 319 314 331 325 326 331 330 334 332 325 322 329